Flag for Canada Weather past 2 weeks in Richmond, British Columbia, Canada

Now
61 °F

Mostly cloudy.


Feels Like: 61 °F
Forecast: 57 / 65 °F
Wind: 12 mph from Northwest

Location: Vancouver International Air-Port

Current Time: Aug 31, 2014 at 12:13:58 AM

Latest Report: Aug 30, 2014 at 11:00 PM


Visibility: 15 mi

Pressure: 29.93 "Hg

Humidity: 94%

Dew point: 59 °F

Location of RichmondLocation

Historic Weather in Richmond — Graph

°F

Richmond temperature yesterday

Maximum temperature yesterday: 66 °F (at 11:00 AM)
Minimum temperature yesterday: 57 °F (at 1:00 AM)
Average temperature yesterday: 62 °F

Past Weeks' High & Low Weather Summary

 TemperatureHumidityPressure
High77 °F (Aug 27, 5:00 PM)100% (Aug 18, 6:00 AM)30.15 "Hg (Aug 18, 6:00 AM)
Low55 °F (Aug 23, 6:00 AM)57% (Aug 21, 6:00 PM)29.75 "Hg (Aug 19, 8:00 PM)
Average66 °F80%29.99 "Hg
* Reported Aug 15 10:00 PM — Aug 30 10:02 PM, Richmond, Weather by CustomWeather, © 2014

Note: Actual official high and low records may vary slightly from our data, if they occured in-between our weather recording intervals... More about our weather records

Advertising

Richmond weather history for previous 24 hours

 ConditionsComfort  
Time TempWeatherWind HumidityBarometerVisibility
10:02 PM
Aug 30
61 °FLight rain. Mostly cloudy.8 mph88%29.92 "Hg12 mi
9:00 PM61 °FPartly cloudy.3 mph88%29.91 "Hg15 mi
8:00 PM63 °FBroken clouds.2 mph83%29.88 "Hg20 mi
7:00 PM64 °FBroken clouds.6 mph73%29.88 "Hg20 mi
6:00 PM64 °FPartly sunny.6 mph78%29.87 "Hg15 mi
5:00 PM64 °FPartly sunny.3 mph78%29.88 "Hg20 mi
4:00 PM64 °FPartly sunny.7 mph83%29.89 "Hg15 mi
3:00 PM64 °FSprinkles. Broken clouds.9 mph78%29.89 "Hg15 mi
2:00 PM64 °FSprinkles. More clouds than sun.9 mph78%29.89 "Hg15 mi
1:55 PM64 °FSprinkles. More clouds than sun.9 mph78%29.89 "Hg15 mi
1:00 PM64 °FScattered showers. Broken clouds.10 mph78%29.90 "Hg15 mi
12:00 PM66 °FPartly sunny.9 mph73%29.90 "Hg15 mi
11:00 AM66 °FPartly sunny.8 mph73%29.90 "Hg20 mi
10:00 AM64 °FPartly sunny.10 mph78%29.90 "Hg20 mi
9:00 AM61 °FBroken clouds.10 mph83%29.89 "Hg20 mi
8:00 AM59 °FBroken clouds.9 mph88%29.89 "Hg20 mi
7:00 AM57 °FPartly cloudy.8 mph88%29.89 "Hg20 mi
6:00 AM57 °FPassing clouds.9 mph88%29.89 "Hg20 mi
5:00 AM59 °FPassing clouds.9 mph88%29.90 "Hg15 mi
4:00 AM57 °FPartly cloudy.6 mph88%29.90 "Hg15 mi
3:00 AM59 °FPassing clouds.8 mph82%29.91 "Hg15 mi
2:00 AM59 °FMostly cloudy.7 mph88%29.92 "Hg20 mi
1:00 AM57 °FOvercast.8 mph88%29.92 "Hg15 mi
12:00 AM59 °FPartly cloudy.7 mph88%29.92 "Hg20 mi
Weather by CustomWeather, © 2014

See weather overviewHow to use our weather pages